Weather Roundup
Issued by NWS

Home | Current Version | Previous Version | Graphics & Text | Print | Product List | Glossary Off
Versions: 1 2 3 4 5 6 7 8 9 10 11 12 13 14 15 16 17 18 19 20 21 22 23 24 25 26 27 28 29 30 31 32 33 34 35 36 37 38 39 40 41 42 43 44 45 46 47 48 49 50

000
NZUS93 KARX 221810
HRRWXR

CURRENT HOURLY OBSERVATIONS ACROSS
MUCH OF THE UPPER MISSISSIPPI VALLEY
NATIONAL WEATHER SERVICE LA CROSSE WI
100 PM CDT MON MAY 22 2017


...SOUTHEAST MINNESOTA...


CITY           SKY/WX    TMP DP  RH WIND       PRES   REMARKS
ROCHESTER      SUNNY     64  49  57 SW9       29.87F
ROCHESTER/MAYO FAIR      64  43  46 W5        29.86S
WINONA         SUNNY     66  46  48 NW8       29.85F
AUSTIN         MOSUNNY   63  45  51 CALM      29.86S
ALBERT LEA     SUNNY     64  43  45 CALM      29.86S
DODGE CENTER   SUNNY     63  43  48 W8        29.86S
PRESTON        SUNNY     63  48  58 NW5       29.88S
OWATONNA       SUNNY     63  45  51 NW8       29.86S
FARIBAULT      SUNNY     63  46  55 W12       29.86S
$$

...ELSEWHERE IN MINNESOTA...


CITY           SKY/WX    TMP DP  RH WIND       PRES   REMARKS
MINNEAPOLIS    MOSUNNY   63  42  46 W15G23    29.84S
INTNL FALLS    LGT RAIN  47  43  86 N6        29.75R
DULUTH         CLOUDY    51  46  83 W12       29.77R
RED WING       SUNNY     64  39  39 W13       29.83F
REDWOOD FALLS  SUNNY     63  45  51 VRB6      29.86S
MANKATO        NOT AVBL
WORTHINGTON    MOSUNNY   63  48  58 VRB3      29.87F
FAIRMONT       SUNNY     64  45  49 VRB5      29.87S
$$

...SOUTHWEST WISCONSIN...


CITY           SKY/WX    TMP DP  RH WIND       PRES   REMARKS
LA CROSSE      SUNNY     67  50  54 S14       29.85F
PRAIRIE DU CHI MOSUNNY   58  51  78 S5        29.88F
BOSCOBEL       MOSUNNY   60  52  74 SW8       29.89F
LONE ROCK      PTSUNNY   55  49  80 S3        29.90F
PLATTEVILLE    CLOUDY    60  53  76 S9        29.92F
FORT MC COY    SUNNY     66  46  49 W8        29.85F
CAMP DOUGLAS   MOSUNNY   66  45  45 SW9G24    29.84F
MAUSTON-NEW LI CLEAR     64  49  58 SW13G18   29.86S
VIROQUA        FAIR      62  49  62 N10       29.88F
WIS DELLS      PTSUNNY   59  47  65 SW15G21   29.88F
$$

...ELSEWHERE IN WISCONSIN...


CITY           SKY/WX    TMP DP  RH WIND       PRES   REMARKS
MILWAUKEE      PTSUNNY   65  45  48 SW12G25   29.94F
MADISON        CLOUDY    55  49  80 VRB5      29.92F
GREEN BAY      PTSUNNY   62  47  57 SW13      29.85F
EAU CLAIRE     MOSUNNY   63  43  48 W13G21    29.82F
BLACK RVR FLS  FAIR      65  43  44 SW9       29.84F
MEDFORD        CLOUDY    56  41  56 SW15G23   29.81S
WAUSAU         PTSUNNY   59  42  53 W13G22    29.80F
WIS RAPIDS     MOSUNNY   65  44  46 SW16G22   29.85F
MARSHFIELD     MOSUNNY   62  43  49 W12G25    29.82F
RICE LAKE      PTSUNNY   57  42  57 W14G23    29.84S
$$

...NORTHEAST IOWA...


CITY           SKY/WX    TMP DP  RH WIND       PRES   REMARKS
WATERLOO       SUNNY     67  53  61 SW10G17   29.86F
DUBUQUE        PTSUNNY   59  52  77 S6        29.92F
DECORAH        MOSUNNY   63  52  67 VRB6G13   29.87F
MASON CITY     MOSUNNY   62  51  67 CALM      29.88F
CHARLES CITY   PTSUNNY   64  54  68 W12G18    29.88F
OELWEIN        MOSUNNY   63  55  77 SW13G18   29.89F
$$

...ELSEWHERE IN IOWA...


CITY           SKY/WX    TMP DP  RH WIND       PRES   REMARKS
DES MOINES     PTSUNNY   69  54  58 SW18      29.90S
IOWA CITY      PTSUNNY   70  52  52 SW18G32   29.92F
FORT DODGE     SUNNY     70  54  56 SW8       29.87F
MARSHALLTOWN   SUNNY     69  56  62 SW17      29.88S
CEDAR RAPIDS   PTSUNNY   68  56  65 SW15G24   29.88F
$$

...NORTHERN ILLINOIS...


CITY           SKY/WX    TMP DP  RH WIND       PRES   REMARKS
CHICAGO-OHARE  MOSUNNY   68  46  45 SW13G25   29.97F
CHICAGO-MIDWAY MOSUNNY   70  46  42 SW15      29.99F
MOLINE         CLOUDY    72  48  42 SW17G25   29.93F
ROCKFORD       CLOUDY    70  48  45 W12G22    29.96F
PEORIA         SUNNY     73  44  35 SW17      29.99F
$$

NOTE: "FAIR" INDICATES FEW OR NO CLOUDS BELOW 12,000 FEET WITH NO
SIGNIFICANT WEATHER AND/OR OBSTRUCTIONS TO VISIBILITY. WIND
SPEEDS ARE IN MILES-PER-HOUR.




USA.gov is the U.S. government's official web portal to all federal, state and local government web resources and services.